Weather History for Lawrence, KS

Change the Weather History Date:

Friday, May 30, 2014

  Actual Average Record
Temperature  
Mean Temperature 77 °F 69 °F  
Max Temperature 88 °F 81 °F 98 °F (1998)
Min Temperature 66 °F 58 °F 51 °F (1997)
Degree Days  
Heating Degree Days 0 1  
Month to date heating degree days 114 104  
Since 1 July heating degree days 5635 5083  
Cooling Degree Days 12 5  
Month to date cooling degree days 172 89  
Year to date cooling degree days 182 112  
Growing Degree Days 26 (Base 50)    
Moisture  
Dew Point 64 °F    
Average Humidity 68    
Maximum Humidity 93    
Minimum Humidity 43    
Precipitation  
Precipitation 0.00 in 0.18 in 1.49 in (2001)
Month to date precipitation 2.07 5.01  
Year to date precipitation 7.66 13.71  
Sea Level Pressure  
Sea Level Pressure 29.99 in    
Wind  
Wind Speed 8 mph (ESE)    
Max Wind Speed 21 mph    
Max Gust Speed 25 mph    
Visibility 10 miles    
Events      
T = Trace of Precipitation, MM = Missing Value Source: NWS Daily Summary

Daily Weather History Graph

Daily Weather History Graph

Search for Another Location

Airport:

Trip Planner

Search our weather history database for the weather conditions in past years. The results will help you decide how hot, cold, wet, or windy it might be!

Date:

Astronomy

May. 30, 2014 Rise Set
Actual Time 5:57 AM CDT 8:39 PM CDT
Civil Twilight 5:26 AM CDT 9:10 PM CDT
Nautical Twilight 4:47 AM CDT 9:49 PM CDT
Astronomical Twilight 4:03 AM CDT 10:34 PM CDT
Moon 7:42 AM CDT (5/30) 10:17 PM CDT (5/30)
Length of Visible Light 15h 44m
Length of Day
14h 41m
Waxing Crescent, 4% of the Moon is Illuminated
May 30
Waxing Crescent
Jun 5
First Quarter
Jun 12
Full
Jun 19
Last Quarter
Jun 27
New

Hourly Weather History & Observations

Time (CDT) Temp. Heat Index Dew Point Humidity Pressure Visibility Wind Dir Wind Speed Gust Speed Precip Events Conditions
12:52 AM 70.0 °F - 64.9 °F 84% 29.97 in 10.0 mi East 5.8 mph - N/A   Clear
1:52 AM 69.1 °F - 64.9 °F 87% 29.97 in 10.0 mi ESE 4.6 mph - N/A   Clear
2:52 AM 68.0 °F - 64.9 °F 90% 29.98 in 10.0 mi East 3.5 mph - N/A   Clear
3:52 AM 68.0 °F - 64.9 °F 90% 29.99 in 10.0 mi East 3.5 mph - N/A   Clear
4:52 AM 66.9 °F - 64.0 °F 90% 29.99 in 10.0 mi East 3.5 mph - N/A   Clear
5:52 AM 66.9 °F - 64.0 °F 90% 29.99 in 8.0 mi ESE 3.5 mph - N/A   Clear
6:52 AM 69.1 °F - 66.0 °F 90% 30.00 in 7.0 mi Calm Calm - N/A   Clear
7:52 AM 72.0 °F - 66.9 °F 84% 30.01 in 10.0 mi ESE 5.8 mph - N/A   Clear
8:52 AM 75.9 °F - 66.9 °F 74% 30.02 in 10.0 mi Variable 6.9 mph - N/A   Clear
10:52 AM 82.0 °F 83.1 °F 63.0 °F 52% 30.03 in 10.0 mi ESE 12.7 mph - N/A   Clear
11:52 AM 84.0 °F 84.9 °F 63.0 °F 49% 30.03 in 10.0 mi East 12.7 mph 20.7 mph N/A   Partly Cloudy
12:52 PM 84.9 °F 86.1 °F 64.0 °F 49% 30.02 in 10.0 mi SE 13.8 mph 19.6 mph N/A   Mostly Cloudy
1:52 PM 86.0 °F 87.3 °F 64.0 °F 48% 30.01 in 10.0 mi East 15.0 mph - N/A   Scattered Clouds
2:52 PM 87.1 °F 87.8 °F 63.0 °F 44% 29.99 in 10.0 mi SE 12.7 mph - N/A   Clear
4:52 PM 87.1 °F 88.3 °F 64.0 °F 46% 29.96 in 10.0 mi East 13.8 mph 18.4 mph N/A   Partly Cloudy
5:52 PM 86.0 °F 86.8 °F 63.0 °F 46% 29.95 in 10.0 mi ESE 12.7 mph - N/A   Partly Cloudy
6:52 PM 84.9 °F 85.0 °F 61.0 °F 44% 29.95 in 10.0 mi ESE 11.5 mph - N/A   Clear
7:52 PM 82.0 °F 83.4 °F 64.0 °F 54% 29.96 in 10.0 mi SE 18.4 mph 25.3 mph N/A   Overcast
8:52 PM 75.9 °F - 64.9 °F 69% 29.98 in 10.0 mi ESE 5.8 mph - N/A   Clear
9:52 PM 75.0 °F - 66.0 °F 73% 30.00 in 10.0 mi ESE 5.8 mph - N/A   Clear
10:52 PM 71.1 °F - 64.9 °F 81% 30.01 in 10.0 mi East 5.8 mph - N/A   Clear
11:52 PM 70.0 °F - 64.9 °F 84% 30.02 in 10.0 mi Calm Calm - N/A   Clear